Weather History for Broome Airport, Western Australia

Change the Weather History Date:

Monday, December 16, 2013

  Actual Average Record
Temperature  
Mean Temperature 87 °F -  
Max Temperature 97 °F 92 °F - ()
Min Temperature 77 °F 79 °F - ()
Cooling Degree Days 22    
Growing Degree Days 37 (Base 50)    
Moisture  
Dew Point 70 °F    
Average Humidity 55    
Maximum Humidity 84    
Minimum Humidity 18    
Precipitation  
Precipitation 0.00 in 0.17 in - ()
Sea Level Pressure  
Sea Level Pressure 29.74 in    
Wind  
Wind Speed 5 mph ()    
Max Wind Speed 15 mph    
Max Gust Speed -    
Visibility 6.2 miles    
Events      
T = Trace of Precipitation, MM = Missing Value Source: Averaged Metar Reports

Daily Weather History Graph

Daily Weather History Graph

Search for Another Location

Airport:

Trip Planner

Search our weather history database for the weather conditions in past years. The results will help you decide how hot, cold, wet, or windy it might be!

Date:

Astronomy

Dec. 16, 2013 Rise Set
Actual Time 5:10 AM AWST 6:22 PM AWST
Civil Twilight 4:46 AM AWST 6:46 PM AWST
Nautical Twilight 4:17 AM AWST 7:15 PM AWST
Astronomical Twilight 3:48 AM AWST 7:45 PM AWST
Moon 5:27 PM AWST (12/16) 4:08 AM AWST (12/16)
Length of Visible Light 14h 00m
Length of Day
13h 12m
Waxing Gibbous, 99% of the Moon is Illuminated
Dec 16
Waxing Gibbous
Dec 17
Full
Dec 25
Last Quarter
Jan 1
New
Jan 8
First Quarter

Hourly Weather History & Observations

Time (AWST) Temp. Heat Index Dew Point Humidity Pressure Visibility Wind Dir Wind Speed Gust Speed Precip Events Conditions
12:00 AM 82 °F - 74 °F 70% 29.78 in - Calm Calm - -  
12:00 AM 82.4 °F 88.2 °F 73.4 °F 74% 29.77 in 6.2 mi Calm Calm - N/A   Unknown
12:30 AM 80.6 °F 85.4 °F 73.4 °F 79% 29.77 in 6.2 mi Calm Calm - N/A   Unknown
1:00 AM 80.6 °F 85.4 °F 73.4 °F 79% 29.74 in 6.2 mi Calm Calm - N/A   Unknown
1:30 AM 82.4 °F 88.2 °F 73.4 °F 74% 29.74 in 6.2 mi Calm Calm - N/A   Unknown
2:00 AM 82 °F - 71 °F 62% 29.75 in - WSW 5.8 mph - -  
2:00 AM 82.4 °F 87.2 °F 71.6 °F 70% 29.74 in 6.2 mi WSW 5.8 mph - N/A   Unknown
2:30 AM 82.4 °F 86.3 °F 69.8 °F 66% 29.74 in 6.2 mi SSW 4.6 mph - N/A   Unknown
3:00 AM 83 °F - 69 °F 54% 29.75 in - SSW 1.2 mph - -  
3:00 AM 82.4 °F 86.3 °F 69.8 °F 66% 29.74 in 6.2 mi South 1.2 mph - N/A   Mostly Cloudy
3:30 AM 84.2 °F 85.6 °F 64.4 °F 51% 29.74 in 6.2 mi South 5.8 mph - N/A   Mostly Cloudy
4:00 AM 84.2 °F 86.6 °F 66.2 °F 55% 29.74 in 6.2 mi SSE 4.6 mph - N/A   Scattered Clouds
4:30 AM 82.4 °F 87.2 °F 71.6 °F 70% 29.74 in 6.2 mi South 4.6 mph - N/A   Unknown
5:00 AM 81 °F - 72 °F 68% 29.76 in - South 2.3 mph - -  
5:00 AM 80.6 °F 84.6 °F 71.6 °F 74% 29.74 in 6.2 mi South 2.3 mph - N/A   Unknown
5:30 AM 78.8 °F - 73.4 °F 83% 29.77 in 6.2 mi Calm Calm - N/A   Unknown
6:00 AM 80 °F - 73 °F 73% 29.77 in 25 mi Calm Calm - -   Partly Cloudy
6:00 AM 78.8 °F - 73.4 °F 83% 29.77 in - Calm Calm - N/A   Clear
6:30 AM 86.0 °F 88.2 °F 66.2 °F 51% 29.77 in - South 4.6 mph - N/A   Clear
7:00 AM 87.8 °F 88.5 °F 62.6 °F 43% 29.77 in - South 4.6 mph - N/A   Clear
7:30 AM 87.8 °F 88.5 °F 62.6 °F 43% 29.77 in - SSE 5.8 mph - N/A   Clear
8:00 AM 88 °F - 63 °F 33% 29.78 in - SE 8.1 mph - -  
8:00 AM 87.8 °F 88.5 °F 62.6 °F 43% 29.77 in - SE 8.1 mph - N/A   Clear
8:30 AM 87.8 °F 89.4 °F 64.4 °F 46% 29.77 in - SSE 8.1 mph - N/A   Clear
9:00 AM 90 °F - 65 °F 33% 29.78 in 25 mi South 5.8 mph - -   Partly Cloudy
9:00 AM 89.6 °F 91.1 °F 64.4 °F 43% 29.77 in - South 5.8 mph - N/A   Clear
9:30 AM 91.4 °F 93.2 °F 64.4 °F 41% 29.77 in - SSE 4.6 mph - N/A   Clear
10:00 AM 93.2 °F 93.3 °F 60.8 °F 34% 29.77 in - SE 6.9 mph - N/A   Clear
10:30 AM 95.0 °F 93.7 °F 57.2 °F 28% 29.74 in 6.2 mi SE 5.8 mph - N/A   Scattered Clouds
11:00 AM 97 °F - 58 °F 18% 29.75 in - South 6.9 mph - -  
11:00 AM 96.8 °F 96.2 °F 59.0 °F 28% 29.74 in - South 6.9 mph - N/A   Clear
11:30 AM 96.8 °F 98.0 °F 62.6 °F 32% 29.74 in - West 12.7 mph - N/A   Clear
12:00 PM 96 °F - 67 °F 30% 29.73 in 25 mi West 12.7 mph - -   Partly Cloudy
12:00 PM 96.8 °F 101.8 °F 68.0 °F 39% 29.71 in - West 12.7 mph - N/A   Clear
12:30 PM 95.0 °F 98.5 °F 66.2 °F 39% 29.71 in - WSW 13.8 mph - N/A   Clear
1:00 PM 95.0 °F 99.5 °F 68.0 °F 41% 29.71 in - West 13.8 mph - N/A   Clear
1:30 PM 96.8 °F 101.8 °F 68.0 °F 39% 29.71 in 6.2 mi West 12.7 mph - N/A   Partly Cloudy
2:00 PM 95 °F - 68 °F 32% 29.70 in - WSW 15.0 mph - -  
2:00 PM 95.0 °F 99.5 °F 68.0 °F 41% 29.68 in 6.2 mi WSW 15.0 mph - N/A   Partly Cloudy
2:30 PM 95.0 °F 103.2 °F 71.6 °F 47% 29.68 in - West 13.8 mph - N/A   Clear
3:00 PM 95 °F - 71 °F 36% 29.69 in 25 mi West 12.7 mph - -   Scattered Clouds
3:00 PM 95.0 °F 101.3 °F 69.8 °F 44% 29.68 in - West 12.7 mph - N/A   Clear
3:30 PM 93.2 °F 98.8 °F 69.8 °F 46% 29.68 in - West 12.7 mph - N/A   Clear
4:00 PM 91.4 °F 96.8 °F 69.8 °F 49% 29.68 in 6.2 mi West 11.5 mph - N/A   Scattered Clouds
4:30 PM 91.4 °F 98.4 °F 71.6 °F 52% 29.71 in 6.2 mi SSW 12.7 mph - N/A   Scattered Clouds
5:00 PM 93 °F - 63 °F 27% 29.71 in - WSW 10.4 mph - -  
5:00 PM 93.2 °F 94.1 °F 62.6 °F 36% 29.71 in 6.2 mi WSW 10.4 mph - N/A   Scattered Clouds
5:30 PM 91.4 °F 94.0 °F 66.2 °F 43% 29.71 in 6.2 mi WSW 8.1 mph - N/A   Partly Cloudy
6:00 PM 91 °F - 69 °F 38% 29.72 in 25 mi WSW 9.2 mph - -   Partly Cloudy
6:00 PM 91.4 °F 95.4 °F 68.0 °F 46% 29.71 in 6.2 mi WSW 9.2 mph - N/A   Partly Cloudy
6:30 PM 89.6 °F 98.2 °F 73.4 °F 59% 29.71 in 6.2 mi WSW 9.2 mph - N/A   Unknown
7:00 PM 89.6 °F 99.8 °F 75.2 °F 62% 29.74 in - SW 8.1 mph - N/A   Clear
7:30 PM 87.8 °F 97.6 °F 75.2 °F 66% 29.74 in - SSW 3.5 mph - N/A   Clear
8:00 PM 87 °F - 76 °F 63% 29.76 in - West 1.2 mph - -  
8:00 PM 87.8 °F 99.7 °F 77.0 °F 70% 29.74 in - West 1.2 mph - N/A   Clear
8:30 PM 86.0 °F 96.9 °F 77.0 °F 74% 29.77 in - NW 3.5 mph - N/A   Clear
9:00 PM 85 °F - 77 °F 71% 29.77 in 25 mi NW 3.5 mph - -   Partly Cloudy
9:00 PM 84.2 °F 94.1 °F 77.0 °F 79% 29.77 in - NW 3.5 mph - N/A   Clear
9:30 PM 86.0 °F 99.3 °F 78.8 °F 79% 29.77 in 6.2 mi West 5.8 mph - N/A   Unknown
10:00 PM 86.0 °F 99.3 °F 78.8 °F 79% 29.77 in 6.2 mi West 5.8 mph - N/A   Unknown
10:30 PM 86.0 °F 101.9 °F 80.6 °F 84% 29.77 in 6.2 mi West 8.1 mph - N/A   Unknown
11:00 PM 86 °F - 80 °F 78% 29.76 in - WSW 6.9 mph - -  
11:00 PM 86.0 °F 101.9 °F 80.6 °F 84% 29.74 in 6.2 mi WSW 6.9 mph - N/A   Unknown
11:30 PM 86.0 °F 101.9 °F 80.6 °F 84% 29.74 in 6.2 mi SW 8.1 mph - N/A   Unknown